This is the latest recevied weather packets stored in our database for station/object N5ATR. If no packets are shown the sender has not sent any weather packets the latest 10 day(s).
| Time | Temp. | Humidity | Pressure | Rain* | Wind** | Luminosity | Snow |
|---|---|---|---|---|---|---|---|
| 1777906823 | 15° C | 41% | 1015.3 hPa | 0 mm | - | 221 W/m² | - |
| 1777906521 | 15° C | 40% | 1015.3 hPa | 0 mm | - | 245 W/m² | - |
| 1777906220 | 15° C | 43% | 1015.5 hPa | 0 mm | - | 262 W/m² | - |
| 1777905918 | 13.89° C | 44% | 1015.3 hPa | 0 mm | - | 222 W/m² | - |
| 1777905614 | 13.89° C | 49% | 1015.1 hPa | 0 mm | - | 188 W/m² | - |
| 1777905311 | 13.89° C | 49% | 1015.6 hPa | 0 mm | - | 171 W/m² | - |
| 1777905009 | 13.89° C | 51% | 1015.5 hPa | 0 mm | - | 173 W/m² | - |
| 1777904706 | 13.33° C | 51% | 1015.5 hPa | 0 mm | - | 183 W/m² | - |
| 1777904403 | 13.33° C | 53% | 1015.6 hPa | 0 mm | - | 170 W/m² | - |
| 1777904100 | 13.33° C | 55% | 1015.5 hPa | 0 mm | - | 164 W/m² | - |
| 1777903796 | 12.78° C | 57% | 1015.5 hPa | 0 mm | - | 202 W/m² | - |
| 1777903493 | 12.78° C | 56% | 1015.4 hPa | 0 mm | - | 153 W/m² | - |
| 1777903189 | 12.78° C | 58% | 1015.4 hPa | 0 mm | - | 120 W/m² | - |
| 1777902886 | 12.22° C | 61% | 1015.5 hPa | 0 mm | - | 109 W/m² | - |
| 1777902583 | 12.22° C | 61% | 1015.3 hPa | 0 mm | - | 75 W/m² | - |
| 1777902280 | 11.67° C | 62% | 1015.4 hPa | 0 mm | - | 82 W/m² | - |
| 1777901978 | 11.67° C | 63% | 1015.4 hPa | 0 mm | - | 72 W/m² | - |
| 1777901675 | 11.67° C | 64% | 1015.3 hPa | 0 mm | - | 68 W/m² | - |
| 1777901372 | 11.67° C | 65% | 1015.1 hPa | 0 mm | - | 61 W/m² | - |
| 1777901070 | 11.11° C | 65% | 1015 hPa | 0 mm | - | 60 W/m² | - |
| 1777900767 | 11.11° C | 66% | 1015.3 hPa | 0 mm | - | 60 W/m² | - |
| 1777900464 | 11.11° C | 66% | 1015.3 hPa | 0 mm | - | 55 W/m² | - |
| 1777900161 | 11.11° C | 67% | 1014.9 hPa | 0 mm | - | 48 W/m² | - |
| 1777899858 | 10.56° C | 67% | 1015.3 hPa | 0 mm | - | 39 W/m² | - |
| 1777899554 | 10.56° C | 67% | 1014.9 hPa | 0 mm | - | 43 W/m² | - |
* Rain latest hour (hover to see other rain measurements)
** Current wind speed in m/s (hover to see current wind gust speed)